This demonstration page uses our WeatherBlox Daily Observations layout. Learn more.

Left ArrowRight Arrow

Hourly Observations for April 6, 2018

Temp ( °F °C ) Dew Point ( °F °C ) Humidity (%) Winds ( mph kmh ) Pressure ( in mb ) Visibility ( mi km ) Precip ( " mm )
12:56 am 00:56 Cloudy 40 4.4 32 0 73 73 NNE 14 22 30.09 1019 10 16 0.00 0.00
1:31 am 01:31 Cloudy with Light Rain 37 3 32 0 81 81 NNE 16 26 30.15 1021 10 16 0.00 0.00
1:56 am 01:56 Windy with Snow Likely 35 1.7 31 -0.6 85 85 NNE 23 37 30.11 1020 6 10 0.00 0.03
2:08 am 02:08 Windy with Snow Likely 34 1 30 -1 87 87 NNE 20 31 30.18 1022 3 5 0.00 0.03
2:11 am 02:11 Cloudy with Light Snow 34 1 30 -1 87 87 NNE 17 28 30.18 1022 3 4 0.00 0.00
2:22 am 02:22 Cloudy with Light Snow 34 1 30 -1 87 87 NNE 18 30 30.18 1022 2 2 0.01 0.25
2:37 am 02:37 Cloudy with Light Snow 32 0 30 -1 93 93 NNE 17 28 30.18 1022 1 2 0.01 0.25
2:44 am 02:44 Cloudy with Light Snow 32 0 30 -1 93 93 NE 14 22 30.18 1022 1 2 0.02 0.51
2:56 am 02:56 Windy with Snow Likely 32 0 30 -1.1 92 92 NE 25 41 30.11 1020 2 3 0.02 0.51
3:08 am 03:08 Windy with Snow Likely 30 -1 28 -2 93 93 NNE 22 35 30.18 1022 2 3 0.01 0.25
3:12 am 03:12 Cloudy with Light Snow 30 -1 28 -2 93 93 NNE 18 30 30.18 1022 3 4 0.01 0.25
3:15 am 03:15 Windy with Snow Likely 30 -1 28 -2 93 93 NNE 20 31 30.18 1022 3 5 0.01 0.25
3:24 am 03:24 Windy with Snow Likely 30 -1 28 -2 93 93 NE 21 33 30.18 1022 3 4 0.01 0.25
3:34 am 03:34 Windy with Snow Likely 28 -2 27 -3 93 93 NE 22 35 30.21 1023 5 8 0.01 0.25
3:47 am 03:47 Windy with Snow Likely 28 -2 27 -3 93 93 NE 21 33 30.21 1023 8 13 0.01 0.25
3:56 am 03:56 Cloudy with Light Snow 29 -1.7 26 -3.3 89 89 NE 17 28 30.11 1020 9 14 0.01 0.25
4:11 am 04:11 Cloudy with Light Snow 28 -2 25 -4 86 86 NE 18 30 30.21 1023 9 14 0.00 0.03
4:56 am 04:56 Cloudy 28 -2.2 25 -3.9 88 88 NNE 16 26 30.13 1020 10 16 0.00 0.03
5:53 am 05:53 Cloudy with Light Snow 28 -2 25 -4 86 86 NNE 16 26 30.24 1024 10 16 0.00 0.03
5:56 am 05:56 Cloudy with Light Snow 28 -2.2 25 -3.9 88 88 NNE 15 24 30.15 1021 9 14 0.00 0.03
6:56 am 06:56 Cloudy with Light Snow 27 -2.8 26 -3.3 96 96 NNE 15 24 30.16 1021 9 14 0.00 0.03
7:36 am 07:36 Cloudy with Light Snow 27 -3 25 -4 93 93 NNE 17 28 30.27 1025 9 14 0.00 0.03
7:44 am 07:44 Cloudy 27 -3 25 -4 93 93 NNE 10 17 30.27 1025 9 14 0.00 0.03
7:56 am 07:56 Cloudy with Light Snow 27 -2.8 25 -3.9 92 92 NNE 13 20 30.21 1023 9 14 0.00 0.03
8:11 am 08:11 Cloudy with Light Snow 27 -3 25 -4 93 93 NNE 14 22 30.30 1026 5 8 0.00 0.00
8:29 am 08:29 Cloudy with Light Snow 28 -2 27 -3 93 93 NNE 17 28 30.27 1025 3 5 0.00 0.00
8:42 am 08:42 Cloudy with Light Snow 28 -2 27 -3 93 93 NNE 16 26 30.30 1026 7 11 0.00 0.03
8:56 am 08:56 Cloudy with Light Snow 28 -2.2 26 -3.3 92 92 NNE 15 24 30.22 1023 7 11 0.00 0.03
9:56 am 09:56 Windy with Snow Likely 27 -2.8 23 -5 85 85 NNE 26 43 30.24 1024 7 11 0.00 0.03
10:17 am 10:17 Cloudy 27 -3 21 -6 80 80 NNE 29 46 30.33 1027 10 16 0.00 0.03
10:56 am 10:56 Windy with Snow Likely 24 -4.4 20 -6.7 84 84 NNE 29 46 30.29 1026 9 14 0.00 0.03
11:23 am 11:23 Windy with Snow Likely 25 -4 19 -7 80 80 NNE 25 41 30.42 1030 3 4 0.00 0.03
11:56 am 11:56 Windy with Snow Likely 23 -5 19 -7.2 85 85 NE 25 41 30.31 1027 3 4 0.00 0.03
12:03 pm 12:03 Windy with Snow Likely 23 -5 19 -7 86 86 NNE 28 44 30.42 1030 5 8 0.00 0.00
12:37 pm 12:37 Windy with Snow Likely 23 -5 18 -8 80 80 NNE 25 41 30.42 1030 2 3 0.00 0.00
12:56 pm 12:56 Windy with Snow Likely 23 -5 18 -7.8 81 81 NNE 24 39 30.33 1027 2 3 0.00 0.03
1:10 pm 13:10 Windy with Snow Likely 23 -5 18 -8 80 80 NNE 24 39 30.42 1030 3 5 0.00 0.03
1:18 pm 13:18 Windy with Snow Likely 23 -5 18 -8 80 80 NNE 23 37 30.42 1030 2 3 0.00 0.03
1:34 pm 13:34 Windy with Snow Likely 21 -6 18 -8 86 86 NNE 25 41 30.42 1030 3 5 0.00 0.03
1:45 pm 13:45 Windy with Snow Likely 21 -6 16 -9 80 80 NNE 25 41 30.42 1030 2 3 0.00 0.00
1:49 pm 13:49 Windy with Snow Likely 21 -6 16 -9 80 80 NNE 25 41 30.42 1030 3 5 0.00 0.03
1:56 pm 13:56 Windy with Snow Likely 21 -6.1 16 -8.9 81 81 NNE 26 43 30.36 1028 5 8 0.00 0.03
2:11 pm 14:11 Windy with Snow Likely 19 -7 16 -9 86 86 NNE 24 39 30.45 1031 2 3 0.00 0.00
2:19 pm 14:19 Windy with Snow Likely 19 -7 16 -9 86 86 NNE 22 35 30.45 1031 2 2 0.00 0.00
2:30 pm 14:30 Windy with Snow Likely 19 -7 16 -9 86 86 NNE 24 39 30.45 1031 1 2 0.00 0.03
2:40 pm 14:40 Windy with Snow Likely 19 -7 16 -9 86 86 NNE 21 33 30.45 1031 1 2 0.00 0.03
2:49 pm 14:49 Windy with Snow Likely 19 -7 16 -9 86 86 NNE 21 33 30.45 1031 1 2 0.00 0.00
2:56 pm 14:56 Windy with Snow Likely 19 -7.2 14 -10 81 81 NNE 22 35 30.37 1029 1 2 0.00 0.03
3:04 pm 15:04 Windy with Snow Likely 18 -8 14 -10 86 86 NNE 22 35 30.45 1031 1 2 0.00 0.03
3:11 pm 15:11 Windy with Snow Likely 18 -8 14 -10 86 86 NNE 21 33 30.45 1031 1 2 0.00 0.00
3:19 pm 15:19 Windy with Snow Likely 19 -7 14 -10 79 79 NNE 23 37 30.45 1031 2 3 0.00 0.03
3:28 pm 15:28 Cloudy with Light Snow 18 -8 12 -11 79 79 NNE 18 30 30.45 1031 1 2 0.00 0.03
3:44 pm 15:44 Cloudy with Light Snow 18 -8 14 -10 86 86 NNE 17 28 30.45 1031 2 3 0.00 0.03
3:52 pm 15:52 Cloudy with Light Snow 19 -7 14 -10 79 79 NNE 17 28 30.45 1031 2 3 0.00 0.03
3:53 pm 15:53 Cloudy with Light Snow 18 -7.8 13 -10.6 81 81 NNE 16 26 30.37 1029 2 3 0.00 0.03
4:02 pm 16:02 Cloudy with Light Snow 18 -8 12 -11 79 79 NNE 17 28 30.45 1031 6 10 0.00 0.03
4:23 pm 16:23 Cloudy with Light Snow 19 -7 12 -11 73 73 N 15 24 30.45 1031 9 14 0.00 0.00
4:56 pm 16:56 Cloudy with Light Snow 20 -6.7 12 -11.1 71 71 N 17 28 30.36 1028 9 14 0.00 0.03
5:08 pm 17:08 Cloudy 19 -7 12 -11 73 73 N 17 28 30.45 1031 10 16 0.00 0.03
5:56 pm 17:56 Partly Cloudy 21 -6.1 8 -13.3 57 57 N 18 30 30.35 1028 10 16 0.00 0.03
6:56 pm 18:56 Sunny 20 -6.7 8 -13.3 60 60 N 16 26 30.37 1029 10 16 0.00 0.00
7:56 pm 19:56 Mostly Cloudy 19 -7.2 8 -13.3 62 62 N 15 24 30.38 1029 10 16 0.00 0.00
8:56 pm 20:56 Partly Cloudy 18 -7.8 8 -13.3 65 65 N 10 17 30.40 1029 10 16 0.00 0.00
9:56 pm 21:56 Clear 18 -7.8 8 -13.3 65 65 N 9 15 30.40 1030 10 16 0.00 0.00
10:56 pm 22:56 Mostly Clear 17 -8.3 9 -12.8 70 70 NNW 7 11 30.40 1030 10 16 0.00 0.00
11:56 pm 23:56 Clear 16 -8.9 9 -12.8 74 74 NNW 6 9 30.40 1029 10 16 0.00 0.00

Powered by AerisWeather